Weather History for KSET - May, 2013

Change the Weather History Date:

Thursday, May 16, 2013

  Actual Average (KSTL) Record (KSTL)
Temperature  
Mean Temperature 72 °F 67 °F  
Max Temperature 82 °F 76 °F 93 °F (2001)
Min Temperature 64 °F 57 °F 39 °F (1875)
Degree Days  
Heating Degree Days 0 2  
Month to date heating degree days 54  
Since 1 July heating degree days 4510  
Cooling Degree Days 8 4  
Month to date cooling degree days 46  
Year to date cooling degree days 92  
Growing Degree Days 22 (Base 50)    
Moisture  
Dew Point 61 °F    
Average Humidity 67    
Maximum Humidity 87    
Minimum Humidity 47    
Precipitation  
Precipitation 0.00 in 0.15 in 5.59 in (1995)
Month to date precipitation 2.35  
Year to date precipitation 14.00  
Snow  
Snow 0.00 in 0.00 in 0.00 in (2014)
Month to date snowfall 0.0  
Since 1 July snowfall 17.7  
Snow Depth -    
Sea Level Pressure  
Sea Level Pressure 29.89 in    
Wind  
Wind Speed 4 mph (SSW)    
Max Wind Speed 15 mph    
Max Gust Speed 20 mph    
Visibility 10 miles    
Events      
T = Trace of Precipitation, MM = Missing Value Source: NWS Daily Summary

Daily Weather History Graph

Daily Weather History Graph

Search for Another Location

Airport or City:

Trip Planner

Search our weather history database for the weather conditions in past years. The results will help you decide how hot, cold, wet, or windy it might be!

Date:

Astronomy

May. 16, 2013 Rise Set
Actual Time 5:48 AM CDT 8:08 PM CDT
Civil Twilight 5:17 AM CDT 8:38 PM CDT
Nautical Twilight 4:40 AM CDT 9:16 PM CDT
Astronomical Twilight 3:59 AM CDT 9:57 PM CDT
Moon 11:20 AM CDT (5/16) 12:30 AM CDT (5/16)
Length of Visible Light 15h 21m
Length of Day
14h 20m
Waxing Crescent, 36% of the Moon is Illuminated
May 16
Waxing Crescent
May 17
First Quarter
May 24
Full
May 31
Last Quarter
Jun 8
New

Hourly Weather History & Observations

Time (CDT) Temp. Heat Index Dew Point Humidity Pressure Visibility Wind Dir Wind Speed Gust Speed Precip Events Conditions
12:54 AM 75.0 °F - 64.0 °F 69% 29.87 in 10.0 mi SW 6.9 mph - N/A   Clear
1:54 AM 70.0 °F - 64.0 °F 81% 29.84 in 10.0 mi Calm Calm - N/A   Clear
2:54 AM 71.1 °F - 64.0 °F 78% 29.85 in 10.0 mi Calm Calm - N/A   Clear
3:54 AM 70.0 °F - 64.9 °F 84% 29.88 in 10.0 mi Calm Calm - N/A   Mostly Cloudy
4:54 AM 69.1 °F - 64.9 °F 87% 29.86 in 10.0 mi NNE 4.6 mph - N/A   Overcast
5:54 AM 68.0 °F - 64.0 °F 87% 29.89 in 9.0 mi Calm Calm - N/A   Mostly Cloudy
6:54 AM 69.1 °F - 64.0 °F 84% 29.92 in 8.0 mi SW 3.5 mph - N/A   Overcast
7:54 AM 71.1 °F - 64.9 °F 81% 29.93 in 8.0 mi Calm Calm - N/A   Scattered Clouds
8:54 AM 73.9 °F - 63.0 °F 68% 29.91 in 10.0 mi Calm Calm - 0.00 in   Partly Cloudy
9:54 AM 75.0 °F - 62.1 °F 64% 29.92 in 10.0 mi WSW 5.8 mph - N/A   Scattered Clouds
10:54 AM 78.1 °F - 63.0 °F 60% 29.91 in 10.0 mi Calm Calm - N/A   Partly Cloudy
11:54 AM 78.1 °F - 63.0 °F 60% 29.91 in 10.0 mi Variable 6.9 mph - N/A   Mostly Cloudy
12:54 PM 81.0 °F 82.7 °F 64.9 °F 58% 29.88 in 10.0 mi SE 9.2 mph 16.1 mph N/A   Clear
2:54 PM 81.0 °F 82.5 °F 64.0 °F 56% 29.87 in 10.0 mi SSE 13.8 mph 19.6 mph N/A   Mostly Cloudy
3:54 PM 81.0 °F 82.2 °F 63.0 °F 54% 29.86 in 10.0 mi SSE 10.4 mph - N/A   Scattered Clouds
5:54 PM 79.0 °F - 57.0 °F 47% 29.85 in 10.0 mi South 12.7 mph - N/A   Clear
6:54 PM 75.9 °F - 57.0 °F 52% 29.86 in 10.0 mi SSW 15.0 mph - N/A   Clear
7:54 PM 73.9 °F - 57.0 °F 55% 29.87 in 10.0 mi SSW 11.5 mph - N/A   Clear
8:54 PM 72.0 °F - 55.0 °F 55% 29.89 in 10.0 mi SSW 6.9 mph - N/A   Clear
9:54 PM 71.1 °F - 55.0 °F 57% 29.90 in 10.0 mi SW 3.5 mph - N/A   Clear
10:54 PM 64.0 °F - 55.9 °F 75% 29.92 in 10.0 mi NNE 3.5 mph - N/A   Clear
11:54 PM 66.0 °F - 57.0 °F 73% 29.93 in 5.0 mi Calm Calm - N/A   Haze